{"data":{"norad_id":68152,"epoch":"2026-09-19T23:09:52.542144Z","epoch_age_seconds":101660,"freshness":"FRESH","line1":"1 68152U 26049L   26262.96519146  .00012491  00000+0  38848-3 0  9992","line2":"2 68152  97.2855 283.0012 0000903 145.0429 215.0873 15.33454363 29423","mean_motion":15.33454363,"eccentricity":9.03e-5,"inclination_deg":97.2855,"raan_deg":283.0012,"arg_perigee_deg":145.0429,"mean_anomaly_deg":215.0873,"bstar":0.00038848,"rev_number":2942,"period_min":93.905631282227,"perigee_km":464.89733511509,"apogee_km":466.13329872353,"semimajor_km":6843.6523169193,"source":"CELESTRAK","updated_at":"2026-09-20T09:00:43.793710Z"}}